Torna al catalogo

STARLINK-30785

AttivoComunicazioniVLEO
NORAD 58191·PAYLOAD·🇺🇸 United States

Lanciato Oct 30, 2023 da Cape Canaveral Space Force Station

Loading…

Prossimi Passaggi (prossime 24 ore)

TLE

AggiornatoSource: CelesTrak SupGP

Epoca: Sep 14, 2026, 22:10 UTC

1 58191C 23167S   26257.92409722 -.00066869  00000+0 -24220-2 0  2575
2 58191  43.0007 154.8390 0001470 271.7369 117.4263 15.27610753    19

Traccia STARLINK-30785 in tempo reale con AllMySat

Download on the App Store